Weather in Karash

Russia / Yaroslavl Oblast     56°53′57″N   39°23′12″E
temp.,
°C
wind,
m/s
gust,
m/s
humid.,
%
clouds,
%
prec.,
mm/h
press.,
hPa
HPBL,
m
18 may, wed
wed1800:00+7n51289100 0.0 1007492
03:00+5n5109255 0.0 1008306
06:00+4n5109260 0.0 1010357
09:00+9n68675 0.0 10111028
12:00+11nnw5757100 0.1 10111824
15:00+10nw6766100 0.1 10121187
18:00+8nw6108095 0.7 10131168
21:00+4wnw488975 0.8 1014155
19 may, thu
thu1900:00+3w4109296 0.0 1013218
03:00+4w4991100 0.0 1012403
06:00+5wnw3996100 2.1 1011905
09:00+7nw8118325 2.9 10111127
12:00+8n687167 0.6 10131328
15:00+9nnw786182 0.9 10141755
18:00+8nnw696412 0.1 10151509
21:00+3nw36755 0.1 1016112
20 may, fri
fri2000:00+1nw488144 0.0 1017142
03:00−1nnw49935 0.0 1018219
06:00+2nnw48835 0.0 1019304
09:00+6n45625 0.0 10191067
12:00+9n445099 0.0 10191920
15:00+10nne344584 0.0 10172065
18:00+10n335347 0.0 10171584
21:00+4nne22755 0.1 101719
21 may, sat
sat2100:00+2n338147 0.0 101640
03:00+1n348657 0.0 101650
06:00+3n46807 0.0 1015224
09:00+7nne56618 0.0 10151146
12:00+8n6850100 0.1 10141974
15:00+10n6846100 0.1 10132207
18:00+9n475775 0.0 10121711
21:00+4nw496781 0.1 1013151
22 may, sun
sun2200:00+2nnw48715 0.0 1013122
03:000n34780 0.0 101449
06:00+2n35690 0.0 1014165
09:00+7n46520 0.0 10131207
12:00+10n56465 0.0 10121806
15:00+11n56448 0.0 10122010
18:00+10nne46557 0.0 10121806
21:00+5nnw48725 0.0 1013131